Location: Quesnel
(52.9830°N, 122.4830°W)
Time: 11:44:19
(UTC-07:00)

ISS - All Passes

Search period start: 27 August 2016 00:00
Search period end: 06 September 2016 00:00
Orbit: 402 x 406 km, 51.6° (Epoch: 27 August)

Date Brightness Start Highest point End Pass type
(mag) Time Alt. Az. Time Alt. Az. Time Alt. Az.
27 Aug - 09:28:43 10° SSE 09:30:15 13° SE 09:31:47 10° ESE daylight
27 Aug - 11:02:58 10° SW 11:06:06 41° SSE 11:09:14 10° E daylight
27 Aug - 12:39:06 10° W 12:42:23 71° S 12:45:41 10° E daylight
27 Aug - 14:15:31 10° W 14:18:42 45° SSW 14:21:51 10° SE daylight
27 Aug - 15:52:45 10° WSW 15:54:36 14° SW 15:56:26 10° S daylight
28 Aug - 10:10:50 10° SW 10:13:46 30° SSE 10:16:43 10° E daylight
28 Aug - 11:46:41 10° WSW 11:49:58 67° S 11:53:15 10° E daylight
28 Aug - 13:23:04 10° W 13:26:19 57° SSW 13:29:34 10° ESE daylight
28 Aug - 14:59:49 10° W 15:02:22 21° SSW 15:04:55 10° SSE daylight
29 Aug - 09:18:55 10° SSW 09:21:29 21° SSE 09:24:05 10° E daylight
29 Aug - 10:54:18 10° WSW 10:57:33 57° SSE 11:00:48 10° E daylight
29 Aug - 12:30:37 10° W 12:33:54 66° S 12:37:11 10° ESE daylight
29 Aug - 14:07:10 10° W 14:10:06 30° SSW 14:13:01 10° SE daylight
30 Aug - 08:27:20 10° S 08:29:15 15° SE 08:31:09 10° ESE daylight
30 Aug - 10:01:59 10° SW 10:05:09 45° SSE 10:08:19 10° E daylight
30 Aug - 11:38:10 10° W 11:41:27 71° S 11:44:45 10° E daylight
30 Aug - 13:14:36 10° W 13:17:44 40° SSW 13:20:52 10° SE daylight
30 Aug - 14:52:08 10° WSW 14:53:35 12° SW 14:55:01 10° SSW daylight
31 Aug - 09:09:45 10° SW 09:12:46 34° SSE 09:15:47 10° E daylight
31 Aug - 10:45:43 10° WSW 10:48:59 69° S 10:52:16 10° E daylight
31 Aug - 12:22:07 10° W 12:25:20 53° SSW 12:28:33 10° ESE daylight
31 Aug - 13:58:58 10° W 14:01:20 19° SW 14:03:43 10° SSE daylight
01 Sep - 08:17:42 10° SSW 08:20:25 24° SSE 08:23:10 10° E daylight
01 Sep - 09:53:16 10° WSW 09:56:32 61° S 09:59:48 10° E daylight
01 Sep - 11:29:38 10° W 11:32:53 64° S 11:36:09 10° ESE daylight
01 Sep - 13:06:12 10° W 13:09:02 27° SSW 13:11:51 10° SSE daylight
02 Sep - 07:25:57 10° S 07:28:08 17° SE 07:30:19 10° ESE daylight
02 Sep - 09:00:53 10° WSW 09:04:04 49° SSE 09:07:17 10° E daylight
02 Sep - 10:37:07 10° W 10:40:24 70° S 10:43:41 10° E daylight
02 Sep - 12:13:35 10° W 12:16:40 37° SSW 12:19:43 10° SE daylight
02 Sep - 13:51:40 10° SW 13:52:25 11° SW 13:53:12 10° SSW daylight
03 Sep - 06:34:59 10° SSE 06:35:53 11° SE 06:36:46 10° ESE daylight
03 Sep - 08:08:35 10° SW 08:11:39 37° SSE 08:14:44 10° E daylight
03 Sep - 09:44:38 10° W 09:47:55 70° S 09:51:11 10° E daylight
03 Sep - 11:21:02 10° W 11:24:14 49° SSW 11:27:26 10° ESE daylight
03 Sep - 12:58:02 10° WSW 13:00:11 16° SW 13:02:19 10° S daylight
04 Sep - 07:16:26 10° SSW 07:19:15 27° SSE 07:22:06 10° E daylight
04 Sep - 08:52:08 10° WSW 08:55:24 64° S 08:58:40 10° E daylight
04 Sep - 10:28:30 10° W 10:31:45 61° S 10:35:00 10° ESE daylight
04 Sep - 12:05:09 10° W 12:07:52 24° SSW 12:10:33 10° SSE daylight
05 Sep - 06:24:31 10° SSW 06:26:54 19° SE 06:29:18 10° E daylight
05 Sep - 07:59:41 10° WSW 08:02:55 53° SSE 08:06:08 10° E daylight
05 Sep - 09:35:58 10° W 09:39:15 69° S 09:42:31 10° ESE daylight
05 Sep - 11:12:27 10° W 11:15:28 33° SSW 11:18:28 10° SE daylight
